Location: Powell Observatory
(38.6461°N, 94.6997°W)
Time: 05:50:13
(UTC-06:00)

ISS - Visible Passes

Search period start: 06 December 2021 00:00
Search period end: 16 December 2021 00:00
Orbit: 417 x 422 km, 51.6° (Epoch: 06 December)

Date Brightness Start Highest point End Pass type
(mag) Time Alt. Az. Time Alt. Az. Time Alt. Az.
06 Dec -3.1 18:50:00 10° WNW 18:53:18 52° SW 18:53:31 51° SSW visible
07 Dec -3.8 18:02:33 10° NW 18:05:57 86° NE 18:09:17 10° SE visible
08 Dec -0.8 18:52:50 10° W 18:55:02 16° SW 18:57:14 10° S visible
09 Dec -1.5 18:04:48 10° WNW 18:07:46 28° SW 18:10:43 10° SSE visible
15 Dec 0.1 06:52:08 10° SE 06:53:08 11° SE 06:54:09 10° ESE visible
